Flag for Russia Weather past 2 weeks in Murmansk, Russia

Now
43 °F

Partly sunny.


Feels Like: 43 °F
Forecast: 49 / 62 °F
Wind: No wind

Location: Murmansk Airport

Current Time: Sep 2, 2014 at 9:45:42 AM

Latest Report: Sep 2, 2014 at 9:00 AM


Visibility: N/A

Pressure: 30.01 "Hg

Humidity: 100%

Dew point: 43 °F

Location of MurmanskLocation

Historic Weather in Murmansk — Graph

°F

Murmansk temperature yesterday

Maximum temperature yesterday: 61 °F (at 1:30 PM)
Minimum temperature yesterday: 32 °F (at 5:00 AM)
Average temperature yesterday: 48 °F

Past Weeks' High & Low Weather Summary

 TemperatureHumidityPressure
High61 °F (Aug 25, 7:30 PM)100% (Aug 19, 2:30 AM)30.18 "Hg (Aug 19, 2:30 AM)
Low28 °F (Aug 24, 5:30 AM)50% (Aug 18, 4:00 PM)29.27 "Hg (Aug 20, 8:00 AM)
Average49 °F81%29.84 "Hg
* Reported Aug 18 8:00 AM — Sep 2 8:30 AM, Murmansk, Weather by CustomWeather, © 2014

Note: Actual official high and low records may vary slightly from our data, if they occured in-between our weather recording intervals... More about our weather records

Advertising

Murmansk weather history for previous 24 hours

 ConditionsComfort  
Time TempWeatherWind HumidityBarometerVisibility
8:30 AM
Sep 2
43 °FPartly sunny.No wind93%30.01 "HgN/A
8:00 AM41 °FBroken clouds.1 mph93%30.01 "HgN/A
7:30 AM39 °FBroken clouds.No wind100%30.01 "HgN/A
7:00 AM39 °FPartly cloudy.1 mph93%30.01 "Hg4 mi
6:30 AM39 °FFog.No wind93%30.01 "Hg0 mi
6:00 AM37 °FPartly cloudy.No wind93%30.01 "Hg6 mi
5:30 AM37 °FPassing clouds.No wind93%30.01 "Hg4 mi
5:00 AM36 °FFog.1 mph93%30.01 "Hg0 mi
4:30 AM36 °FFog.No wind93%30.01 "Hg1 mi
4:00 AM36 °FFog.No wind93%29.98 "Hg1 mi
3:30 AM37 °FPassing clouds.No wind93%29.98 "Hg5 mi
3:00 AM37 °FFog.1 mph93%29.98 "Hg3 mi
2:30 AM39 °FClear.1 mph93%29.98 "Hg4 mi
2:00 AM41 °FClear.1 mph93%29.98 "Hg10 mi
1:30 AM41 °FClear.No wind93%29.98 "Hg10 mi
1:00 AM43 °FClear.No wind93%29.98 "Hg10 mi
12:30 AM46 °FPassing clouds.1 mph82%29.98 "HgN/A
12:00 AM48 °FPartly cloudy.3 mph82%29.98 "HgN/A
11:30 PM
Sep 1
50 °FPartly cloudy.1 mph76%29.98 "HgN/A
11:00 PM50 °FPartly cloudy.3 mph76%29.98 "HgN/A
10:30 PM52 °FPartly cloudy.6 mph77%29.98 "HgN/A
10:00 PM54 °FBroken clouds.8 mph77%29.95 "HgN/A
9:30 PM55 °FBroken clouds.3 mph67%29.95 "HgN/A
9:00 PM57 °FBroken clouds.3 mph63%29.95 "HgN/A
8:00 PM59 °FBroken clouds.6 mph59%29.95 "HgN/A
7:30 PM59 °FBroken clouds.6 mph59%29.95 "HgN/A
7:00 PM61 °FScattered clouds.8 mph55%29.95 "HgN/A
6:30 PM61 °FSunny.8 mph52%29.95 "Hg10 mi
6:00 PM61 °FSunny.8 mph55%29.95 "Hg10 mi
5:30 PM61 °FSunny.10 mph55%29.95 "Hg10 mi
5:00 PM61 °FSunny.8 mph55%29.95 "Hg10 mi
4:30 PM61 °FSunny.8 mph52%29.98 "Hg10 mi
4:00 PM61 °FSunny.10 mph52%29.98 "Hg10 mi
3:30 PM61 °FSunny.8 mph52%29.98 "Hg10 mi
3:00 PM61 °FPassing clouds.10 mph52%29.98 "HgN/A
2:30 PM61 °FPassing clouds.10 mph52%29.98 "HgN/A
2:00 PM61 °FPassing clouds.8 mph52%29.98 "HgN/A
1:30 PM61 °FPassing clouds.10 mph52%29.98 "HgN/A
1:00 PM59 °FPassing clouds.8 mph55%30.01 "HgN/A
12:30 PM59 °FSunny.8 mph59%30.01 "Hg10 mi
12:00 PM57 °FSunny.8 mph63%30.01 "Hg10 mi
11:30 AM55 °FPassing clouds.10 mph67%30.01 "HgN/A
11:00 AM55 °FPassing clouds.8 mph72%30.01 "HgN/A
10:30 AM48 °FPassing clouds.3 mph94%30.01 "HgN/A
10:00 AM43 °FFog.1 mph100%30.04 "Hg0 mi
9:30 AM41 °FFog.No wind93%30.04 "Hg0 mi
9:00 AM39 °FDense fog.No wind100%30.04 "Hg0 mi
Weather by CustomWeather, © 2014

See weather overviewHow to use our weather pages